,,Stat5,,Stat1,,Stat2,,Stat3,,Stat4,,Wind1,,Wind1,
time,status,PA1M_AVG,status,PR1M_SUM,status,RH1M_AVG,status,SR1M_AVG,status,TA1M_AVG,status,W1dAve1m,status,W1sAve1m,
2003-03-08, 00:00:00,VALID,917.957,VALID,0,VALID,91.5695,VALID,-0.0339617,VALID,18.2007,VALID,132,VALID,0.183482,
2003-03-08, 00:01:00,VALID,917.957,VALID,0,VALID,91.4487,VALID,-0.0509425,VALID,18.1811,VALID,131,VALID,0.260491,
2003-03-08, 00:02:00,VALID,917.97,VALID,0,VALID,91.1855,VALID,-0.0169808,VALID,18.0902,VALID,125,VALID,0.414679,
2003-03-08, 00:03:00,VALID,917.977,VALID,0,VALID,91.5085,VALID,-0.0679233,VALID,17.9838,VALID,113,VALID,0.514597,
2003-03-08, 00:04:00,VALID,917.978,VALID,0,VALID,92.6326,VALID,-0.0849042,VALID,17.913,VALID,111,VALID,0.515425,
2003-03-08, 00:05:00,VALID,917.987,VALID,0,VALID,92.9568,VALID,-0.0679233,VALID,17.8966,VALID,111,VALID,0.4081,
2003-03-08, 00:06:00,VALID,918.013,VALID,0,VALID,92.8844,VALID,0,VALID,17.8641,VALID,111,VALID,0.172286,
2003-03-08, 00:07:00,VALID,918.009,VALID,0,VALID,92.6135,VALID,0.0169808,VALID,17.8436,VALID,111,VALID,0.127404,
2003-03-08, 00:08:00,VALID,918.014,VALID,0,VALID,92.6567,VALID,0.0339617,VALID,17.8212,VALID,111,VALID,0.127404,
2003-03-08, 00:09:00,VALID,918.013,VALID,0,VALID,92.3109,VALID,0.0679233,VALID,17.7986,VALID,111,VALID,0.0088141,
2003-03-08, 00:10:00,VALID,918.019,VALID,0,VALID,92.5283,VALID,0.0339617,VALID,17.7956,VALID,111,VALID,0,
2003-03-08, 00:11:00,VALID,918.019,VALID,0,VALID,92.1341,VALID,0.101885,VALID,17.7018,VALID,83,VALID,0.377467,
2003-03-08, 00:12:00,VALID,918.017,VALID,0,VALID,92.0489,VALID,0.0849042,VALID,17.5952,VALID,81,VALID,0.353171,
2003-03-08, 00:13:00,VALID,918.027,VALID,0,VALID,92.9403,VALID,0.0849042,VALID,17.5145,VALID,81,VALID,0.231027,
2003-03-08, 00:14:00,VALID,918.014,VALID,0,VALID,93.833,VALID,0.0339617,VALID,17.5018,VALID,81,VALID,0.330664,
2003-03-08, 00:15:00,VALID,918.016,VALID,0,VALID,94.4917,VALID,0.0679233,VALID,17.5502,VALID,81,VALID,0.351563,
2003-03-08, 00:16:00,VALID,918.022,VALID,0,VALID,94.573,VALID,0.0509425,VALID,17.5857,VALID,81,VALID,0.302619,
2003-03-08, 00:17:00,VALID,918.02,VALID,0,VALID,94.3467,VALID,0.0169808,VALID,17.6213,VALID,81,VALID,0.218339,
2003-03-08, 00:18:00,VALID,918.009,VALID,0,VALID,94.3798,VALID,0.0339617,VALID,17.6729,VALID,81,VALID,0.265179,
2003-03-08, 00:19:00,VALID,917.987,VALID,0,VALID,94.1318,VALID,0.0679233,VALID,17.7472,VALID,81,VALID,0.261384,
2003-03-08, 00:20:00,VALID,917.954,VALID,0,VALID,93.791,VALID,0.0169808,VALID,17.8279,VALID,81,VALID,0.214944,
2003-03-08, 00:21:00,VALID,917.946,VALID,0,VALID,93.4032,VALID,0,VALID,17.9091,VALID,81,VALID,0.0721507,
2003-03-08, 00:22:00,VALID,917.935,VALID,0,VALID,93.0484,VALID,-0.0849042,VALID,17.9808,VALID,81,VALID,0,
2003-03-08, 00:23:00,VALID,917.923,VALID,0,VALID,92.6453,VALID,-0.0679233,VALID,18.0327,VALID,81,VALID,0,
2003-03-08, 00:24:00,VALID,917.929,VALID,0,VALID,92.2689,VALID,-0.0849042,VALID,18.081,VALID,81,VALID,0.034375,
2003-03-08, 00:25:00,VALID,917.931,VALID,0,VALID,90.5446,VALID,-0.0679233,VALID,18.0648,VALID,81,VALID,0.29182,
2003-03-08, 00:26:00,VALID,917.927,VALID,0,VALID,90.4162,VALID,-0.0339617,VALID,17.9455,VALID,81,VALID,0.331826,
2003-03-08, 00:27:00,VALID,917.921,VALID,0,VALID,91.7272,VALID,-0.0849042,VALID,17.8842,VALID,81,VALID,0.360714,
2003-03-08, 00:28:00,VALID,917.902,VALID,0,VALID,92.054,VALID,-0.0509425,VALID,17.8581,VALID,81,VALID,0.383036,
2003-03-08, 00:29:00,VALID,917.889,VALID,0,VALID,91.8455,VALID,-0.0679233,VALID,17.7603,VALID,61,VALID,0.502003,
2003-03-08, 00:30:00,VALID,917.874,VALID,0,VALID,91.9319,VALID,-0.0509425,VALID,17.6549,VALID,47,VALID,0.671186,
2003-03-08, 00:31:00,VALID,917.86,VALID,0,VALID,92.2079,VALID,-0.0169808,VALID,17.5059,VALID,35,VALID,0.822991,
2003-03-08, 00:32:00,VALID,917.838,VALID,0,VALID,92.9225,VALID,-0.0509425,VALID,17.3998,VALID,28,VALID,0.892383,
2003-03-08, 00:33:00,VALID,917.828,VALID,0,VALID,93.2875,VALID,-0.0339617,VALID,17.2826,VALID,27,VALID,0.930357,
2003-03-08, 00:34:00,VALID,917.817,VALID,0,VALID,93.7796,VALID,-0.0679233,VALID,17.2157,VALID,28,VALID,0.763097,
2003-03-08, 00:35:00,VALID,917.801,VALID,0,VALID,94.3365,VALID,-0.0339617,VALID,17.1903,VALID,29,VALID,0.704153,
2003-03-08, 00:36:00,VALID,917.768,VALID,0,VALID,94.9698,VALID,-0.0849042,VALID,17.1993,VALID,29,VALID,0.618973,
2003-03-08, 00:37:00,VALID,917.739,VALID,0,VALID,95.3602,VALID,-0.0509425,VALID,17.2637,VALID,29,VALID,0.442411,
2003-03-08, 00:38:00,VALID,917.697,VALID,0,VALID,95.4975,VALID,0,VALID,17.3737,VALID,29,VALID,0.326723,
2003-03-08, 00:39:00,VALID,917.68,VALID,0,VALID,95.0677,VALID,-0.0169808,VALID,17.5192,VALID,29,VALID,0.304688,
2003-03-08, 00:40:00,VALID,917.658,VALID,0,VALID,94.2971,VALID,-0.0509425,VALID,17.645,VALID,29,VALID,0.251116,
2003-03-08, 00:41:00,VALID,917.646,VALID,0,VALID,93.2544,VALID,-0.0169808,VALID,17.7483,VALID,29,VALID,0.0529297,
2003-03-08, 00:42:00,VALID,917.636,VALID,0,VALID,92.5868,VALID,-0.0339617,VALID,17.8032,VALID,29,VALID,0,
2003-03-08, 00:43:00,VALID,917.635,VALID,0,VALID,92.4164,VALID,-0.0849042,VALID,17.8226,VALID,29,VALID,0,
2003-03-08, 00:44:00,VALID,917.632,VALID,0,VALID,92.3655,VALID,-0.0509425,VALID,17.8941,VALID,29,VALID,0,
2003-03-08, 00:45:00,VALID,917.621,VALID,0,VALID,92.012,VALID,0,VALID,17.9162,VALID,29,VALID,0.0350446,
2003-03-08, 00:46:00,VALID,917.615,VALID,0,VALID,91.3661,VALID,-0.0169808,VALID,17.9488,VALID,29,VALID,0.00491071,
2003-03-08, 00:47:00,VALID,917.616,VALID,0,VALID,90.963,VALID,-0.0339617,VALID,17.9386,VALID,29,VALID,0,
2003-03-08, 00:48:00,VALID,917.619,VALID,0,VALID,90.5967,VALID,-0.0339617,VALID,17.9389,VALID,29,VALID,0,
2003-03-08, 00:49:00,VALID,917.622,VALID,0,VALID,90.1135,VALID,-0.0169808,VALID,17.8971,VALID,29,VALID,0.101563,
2003-03-08, 00:50:00,VALID,917.629,VALID,0,VALID,90.7201,VALID,-0.0509425,VALID,17.8226,VALID,29,VALID,0.176172,
2003-03-08, 00:51:00,VALID,917.636,VALID,0,VALID,91.5695,VALID,-0.0509425,VALID,17.794,VALID,29,VALID,0.0553571,
2003-03-08, 00:52:00,VALID,917.644,VALID,0,VALID,92.2117,VALID,-0.0339617,VALID,17.7903,VALID,29,VALID,0,
2003-03-08, 00:53:00,VALID,917.646,VALID,0,VALID,92.1901,VALID,-0.0509425,VALID,17.8161,VALID,29,VALID,0,
2003-03-08, 00:54:00,VALID,917.625,VALID,0,VALID,92.0006,VALID,-0.0679233,VALID,17.8549,VALID,29,VALID,0,
2003-03-08, 00:55:00,VALID,917.611,VALID,0,VALID,91.3953,VALID,-0.0339617,VALID,17.9232,VALID,29,VALID,0.222321,
2003-03-08, 00:56:00,VALID,917.596,VALID,0,VALID,90.8549,VALID,-0.0679233,VALID,17.955,VALID,29,VALID,0.0320513,
2003-03-08, 00:57:00,VALID,917.579,VALID,0,VALID,90.7786,VALID,-0.0849042,VALID,17.9552,VALID,29,VALID,0.035386,
2003-03-08, 00:58:00,VALID,917.572,VALID,0,VALID,91.0202,VALID,-0.101885,VALID,17.9681,VALID,29,VALID,0.149554,
2003-03-08, 00:59:00,VALID,917.567,VALID,0,VALID,91.0304,VALID,-0.0339617,VALID,17.9649,VALID,77,VALID,0.415625,
2003-03-08, 01:00:00,VALID,917.555,VALID,0,VALID,91.1804,VALID,-0.0169808,VALID,17.9227,VALID,99,VALID,0.222991,
2003-03-08, 01:01:00,VALID,917.552,VALID,0,VALID,91.581,VALID,-0.0339617,VALID,17.8839,VALID,147,VALID,0.486903,
2003-03-08, 01:02:00,VALID,917.531,VALID,0,VALID,91.8099,VALID,-0.0339617,VALID,17.868,VALID,147,VALID,0.178248,
2003-03-08, 01:03:00,VALID,917.528,VALID,0,VALID,92.1201,VALID,-0.0169808,VALID,17.8713,VALID,147,VALID,0.387054,
2003-03-08, 01:04:01,VALID,917.502,VALID,0,VALID,91.8238,VALID,-0.0339617,VALID,17.8939,VALID,147,VALID,0.0488839,
2003-03-08, 01:05:00,VALID,917.502,VALID,0,VALID,91.3864,VALID,-0.0679233,VALID,17.8745,VALID,147,VALID,0,
2003-03-08, 01:06:00,VALID,917.502,VALID,0,VALID,91.4233,VALID,-0.0679233,VALID,17.8676,VALID,147,VALID,0,
2003-03-08, 01:07:00,VALID,917.501,VALID,0,VALID,91.5619,VALID,-0.0679233,VALID,17.887,VALID,147,VALID,0,
2003-03-08, 01:08:00,VALID,917.515,VALID,0,VALID,91.0202,VALID,-0.0509425,VALID,17.8325,VALID,147,VALID,0,
2003-03-08, 01:09:00,VALID,917.5,VALID,0,VALID,91.862,VALID,-0.0339617,VALID,17.7905,VALID,147,VALID,0,
2003-03-08, 01:10:00,VALID,917.496,VALID,0,VALID,92.1646,VALID,-0.0169808,VALID,17.7543,VALID,147,VALID,0,
2003-03-08, 01:11:00,VALID,917.478,VALID,0,VALID,92.6974,VALID,-0.0679233,VALID,17.7617,VALID,147,VALID,0,
2003-03-08, 01:12:00,VALID,917.446,VALID,0,VALID,92.9835,VALID,-0.0339617,VALID,17.8002,VALID,147,VALID,0.141518,
2003-03-08, 01:13:00,VALID,917.432,VALID,0,VALID,92.7038,VALID,-0.0679233,VALID,17.842,VALID,147,VALID,0.0107143,
2003-03-08, 01:14:01,VALID,917.406,VALID,0,VALID,92.2511,VALID,-0.0679233,VALID,17.8809,VALID,147,VALID,0,
2003-03-08, 01:15:00,VALID,917.411,VALID,0,VALID,91.6776,VALID,-0.0339617,VALID,17.8777,VALID,147,VALID,0,
2003-03-08, 01:16:00,VALID,917.397,VALID,0,VALID,91.4576,VALID,-0.0509425,VALID,17.8747,VALID,147,VALID,0,
2003-03-08, 01:17:00,VALID,917.384,VALID,0,VALID,91.6433,VALID,-0.0679233,VALID,17.9038,VALID,147,VALID,0,
2003-03-08, 01:18:00,VALID,917.376,VALID,0,VALID,91.4716,VALID,-0.0509425,VALID,17.9488,VALID,147,VALID,0,
2003-03-08, 01:19:00,VALID,917.381,VALID,0,VALID,91.2402,VALID,-0.0339617,VALID,17.9716,VALID,147,VALID,0,
2003-03-08, 01:20:00,VALID,917.367,VALID,0,VALID,90.9973,VALID,-0.0509425,VALID,17.9714,VALID,147,VALID,0,
2003-03-08, 01:21:00,VALID,917.372,VALID,0,VALID,91.1321,VALID,-0.0509425,VALID,17.9778,VALID,147,VALID,0,
2003-03-08, 01:22:01,VALID,917.37,VALID,0,VALID,91.4156,VALID,-0.0679233,VALID,17.9935,VALID,147,VALID,0.0183036,
2003-03-08, 01:23:01,VALID,917.357,VALID,0,VALID,90.7048,VALID,-0.0679233,VALID,18.0168,VALID,147,VALID,0.0258413,
2003-03-08, 01:24:00,VALID,917.372,VALID,0,VALID,90.757,VALID,-0.0339617,VALID,18.0106,VALID,147,VALID,0,
2003-03-08, 01:25:01,VALID,917.371,VALID,0,VALID,91.2631,VALID,-0.0339617,VALID,18.023,VALID,147,VALID,0,
2003-03-08, 01:26:01,VALID,917.357,VALID,0,VALID,91.2008,VALID,-0.0679233,VALID,18.072,VALID,147,VALID,0,
2003-03-08, 01:27:00,VALID,917.36,VALID,0,VALID,91.0049,VALID,-0.0509425,VALID,18.075,VALID,147,VALID,0.0100446,
2003-03-08, 01:28:00,VALID,917.353,VALID,0,VALID,91.3877,VALID,-0.0679233,VALID,18.0747,VALID,147,VALID,0,
2003-03-08, 01:29:00,VALID,917.358,VALID,0,VALID,91.4042,VALID,-0.0509425,VALID,18.0876,VALID,147,VALID,0,
2003-03-08, 01:30:00,VALID,917.342,VALID,0,VALID,91.3381,VALID,-0.0849042,VALID,18.1301,VALID,147,VALID,0,
2003-03-08, 01:31:01,VALID,917.362,VALID,0,VALID,90.5751,VALID,-0.0169808,VALID,18.1654,VALID,147,VALID,0,
2003-03-08, 01:32:01,VALID,917.357,VALID,0,VALID,90.4823,VALID,-0.0679233,VALID,18.1875,VALID,147,VALID,0,
2003-03-08, 01:33:00,VALID,917.369,VALID,0,VALID,90.0716,VALID,-0.0509425,VALID,18.2238,VALID,147,VALID,0,
2003-03-08, 01:34:01,VALID,917.353,VALID,0,VALID,90.4365,VALID,-0.0679233,VALID,18.2427,VALID,147,VALID,0,
2003-03-08, 01:35:01,VALID,917.338,VALID,0,VALID,90.0245,VALID,-0.0509425,VALID,18.2819,VALID,147,VALID,0,
2003-03-08, 01:36:00,VALID,917.308,VALID,0,VALID,89.3506,VALID,-0.0339617,VALID,18.2618,VALID,147,VALID,0,
2003-03-08, 01:37:00,VALID,917.28,VALID,0,VALID,89.8656,VALID,-0.0169808,VALID,18.2362,VALID,147,VALID,0,
2003-03-08, 01:38:00,VALID,917.249,VALID,0,VALID,90.3958,VALID,0,VALID,18.2164,VALID,147,VALID,0.00596217,
2003-03-08, 01:39:00,VALID,917.239,VALID,0,VALID,90.7519,VALID,0,VALID,18.2,VALID,147,VALID,0.314732,
2003-03-08, 01:40:01,VALID,917.25,VALID,0,VALID,90.3806,VALID,0,VALID,18.2007,VALID,147,VALID,0.381027,
2003-03-08, 01:41:01,VALID,917.27,VALID,0,VALID,90.0894,VALID,0.0169808,VALID,18.1133,VALID,138,VALID,0.392829,
2003-03-08, 01:42:01,VALID,917.293,VALID,0,VALID,89.3111,VALID,0,VALID,17.9548,VALID,131,VALID,0.408088,
2003-03-08, 01:43:01,VALID,917.285,VALID,0,VALID,90.3984,VALID,0,VALID,17.8062,VALID,103,VALID,0.462054,
2003-03-08, 01:44:01,VALID,917.285,VALID,0,VALID,90.9668,VALID,0,VALID,17.6738,VALID,87,VALID,0.541797,
2003-03-08, 01:45:00,VALID,917.264,VALID,0,VALID,92.0438,VALID,0,VALID,17.5741,VALID,81,VALID,0.583705,
2003-03-08, 01:46:00,VALID,917.232,VALID,0,VALID,92.9479,VALID,-0.0169808,VALID,17.5096,VALID,70,VALID,0.634191,
2003-03-08, 01:47:00,VALID,917.214,VALID,0,VALID,93.0382,VALID,-0.0169808,VALID,17.431,VALID,57,VALID,0.747122,
2003-03-08, 01:48:00,VALID,917.181,VALID,0,VALID,93.3777,VALID,0,VALID,17.4579,VALID,55,VALID,0.680804,
2003-03-08, 01:49:01,VALID,917.168,VALID,0,VALID,93.3218,VALID,0,VALID,17.5227,VALID,55,VALID,0.543304,
2003-03-08, 01:50:01,VALID,917.168,VALID,0,VALID,92.8958,VALID,0,VALID,17.6129,VALID,55,VALID,0.402644,
2003-03-08, 01:51:01,VALID,917.154,VALID,0,VALID,92.3439,VALID,0.0169808,VALID,17.7121,VALID,55,VALID,0.349035,
2003-03-08, 01:52:01,VALID,917.159,VALID,0,VALID,91.5644,VALID,0.0169808,VALID,17.8422,VALID,55,VALID,0.325223,
2003-03-08, 01:53:01,VALID,917.167,VALID,0,VALID,90.5103,VALID,0,VALID,17.9838,VALID,55,VALID,0.288086,
2003-03-08, 01:54:00,VALID,917.18,VALID,0,VALID,89.919,VALID,0,VALID,18.0713,VALID,55,VALID,0.16183,
2003-03-08, 01:55:00,VALID,917.178,VALID,0,VALID,89.8058,VALID,0,VALID,18.1299,VALID,55,VALID,0.0981158,
2003-03-08, 01:56:00,VALID,917.179,VALID,0,VALID,89.54,VALID,0,VALID,18.1458,VALID,55,VALID,0.123355,
2003-03-08, 01:57:00,VALID,917.171,VALID,0,VALID,89.4688,VALID,0,VALID,18.1525,VALID,55,VALID,0,
2003-03-08, 01:58:01,VALID,917.16,VALID,0,VALID,89.2781,VALID,-0.0169808,VALID,18.1326,VALID,55,VALID,0.0770089,
2003-03-08, 01:59:01,VALID,917.157,VALID,0,VALID,89.7257,VALID,0,VALID,18.0872,VALID,55,VALID,0.240585,
2003-03-08, 02:00:00,VALID,917.155,VALID,0,VALID,89.8834,VALID,0,VALID,18.0586,VALID,55,VALID,0.148208,
2003-03-08, 02:01:01,VALID,917.157,VALID,0,VALID,89.9037,VALID,0,VALID,18.0323,VALID,55,VALID,0.220536,
2003-03-08, 02:02:01,VALID,917.138,VALID,0,VALID,89.8974,VALID,-0.0169808,VALID,18.02,VALID,55,VALID,0.304688,
2003-03-08, 02:03:00,VALID,917.137,VALID,0,VALID,89.9508,VALID,-0.0169808,VALID,17.9972,VALID,55,VALID,0.318527,
2003-03-08, 02:04:00,VALID,917.119,VALID,0,VALID,89.6023,VALID,-0.0169808,VALID,17.9455,VALID,55,VALID,0.397748,
2003-03-08, 02:05:00,VALID,917.098,VALID,0,VALID,89.6583,VALID,0,VALID,17.8293,VALID,54,VALID,0.508635,
2003-03-08, 02:06:00,VALID,917.074,VALID,0,VALID,90.4925,VALID,-0.0339617,VALID,17.7264,VALID,53,VALID,0.667411,
2003-03-08, 02:07:01,VALID,917.078,VALID,0,VALID,90.1504,VALID,-0.101885,VALID,17.6689,VALID,53,VALID,0.658482,
2003-03-08, 02:08:01,VALID,917.056,VALID,0,VALID,90.6451,VALID,-0.135847,VALID,17.6175,VALID,52,VALID,0.620393,
2003-03-08, 02:09:00,VALID,917.052,VALID,0,VALID,90.9159,VALID,-0.101885,VALID,17.5944,VALID,43,VALID,0.698989,
2003-03-08, 02:10:01,VALID,917.032,VALID,0,VALID,90.9642,VALID,-0.101885,VALID,17.5817,VALID,42,VALID,0.548884,
2003-03-08, 02:11:01,VALID,917.019,VALID,0,VALID,90.9134,VALID,-0.118866,VALID,17.5656,VALID,42,VALID,0.528906,
2003-03-08, 02:12:00,VALID,917.018,VALID,0,VALID,91.2262,VALID,-0.118866,VALID,17.5623,VALID,45,VALID,0.492857,
2003-03-08, 02:13:00,VALID,916.992,VALID,0,VALID,91.2275,VALID,-0.101885,VALID,17.5888,VALID,58,VALID,0.487132,
2003-03-08, 02:14:00,VALID,916.988,VALID,0,VALID,90.832,VALID,-0.101885,VALID,17.6237,VALID,60,VALID,0.398849,
2003-03-08, 02:15:00,VALID,916.962,VALID,0,VALID,90.6616,VALID,-0.101885,VALID,17.6659,VALID,60,VALID,0.349107,
2003-03-08, 02:16:01,VALID,916.935,VALID,0,VALID,90.4645,VALID,-0.101885,VALID,17.6816,VALID,60,VALID,0.378571,
2003-03-08, 02:17:01,VALID,916.919,VALID,0,VALID,90.2738,VALID,-0.101885,VALID,17.6883,VALID,60,VALID,0.38742,
2003-03-08, 02:18:01,VALID,916.902,VALID,0,VALID,90.2598,VALID,-0.101885,VALID,17.6659,VALID,60,VALID,0.276654,
2003-03-08, 02:19:01,VALID,916.898,VALID,0,VALID,90.42,VALID,-0.135847,VALID,17.6239,VALID,60,VALID,0.21808,
2003-03-08, 02:20:01,VALID,916.887,VALID,0,VALID,90.4988,VALID,-0.101885,VALID,17.5888,VALID,60,VALID,0.0832031,
2003-03-08, 02:21:00,VALID,916.891,VALID,0,VALID,91.127,VALID,-0.0679233,VALID,17.543,VALID,60,VALID,0.233705,
2003-03-08, 02:22:00,VALID,916.906,VALID,0,VALID,91.4373,VALID,0,VALID,17.5416,VALID,60,VALID,0.327665,
2003-03-08, 02:23:00,VALID,916.902,VALID,0,VALID,91.2529,VALID,0,VALID,17.567,VALID,60,VALID,0.349918,
2003-03-08, 02:24:00,VALID,916.9,VALID,0,VALID,90.9948,VALID,0,VALID,17.5993,VALID,60,VALID,0.330134,
2003-03-08, 02:25:01,VALID,916.903,VALID,0,VALID,90.771,VALID,0,VALID,17.642,VALID,60,VALID,0.358259,
2003-03-08, 02:26:01,VALID,916.904,VALID,0,VALID,90.5586,VALID,0,VALID,17.6676,VALID,60,VALID,0.447316,
2003-03-08, 02:27:01,VALID,916.893,VALID,0,VALID,90.1529,VALID,0,VALID,17.7031,VALID,70,VALID,0.528263,
2003-03-08, 02:28:01,VALID,916.9,VALID,0,VALID,89.802,VALID,0.0169808,VALID,17.7065,VALID,79,VALID,0.468304,
2003-03-08, 02:29:01,VALID,916.902,VALID,0,VALID,89.7727,VALID,0,VALID,17.6736,VALID,79,VALID,0.335156,
2003-03-08, 02:30:00,VALID,916.889,VALID,0,VALID,90.1898,VALID,0,VALID,17.6452,VALID,87,VALID,0.427679,
2003-03-08, 02:31:00,VALID,916.876,VALID,0,VALID,90.4441,VALID,0,VALID,17.6064,VALID,101,VALID,0.387868,
2003-03-08, 02:32:00,VALID,916.856,VALID,0,VALID,90.6946,VALID,0,VALID,17.5711,VALID,111,VALID,0.31435,
2003-03-08, 02:33:00,VALID,916.852,VALID,0,VALID,90.9363,VALID,0.0169808,VALID,17.5154,VALID,113,VALID,0.273884,
2003-03-08, 02:34:01,VALID,916.836,VALID,0,VALID,91.1486,VALID,0,VALID,17.4743,VALID,113,VALID,0.297991,
2003-03-08, 02:35:01,VALID,916.826,VALID,0,VALID,91.2058,VALID,0,VALID,17.3866,VALID,113,VALID,0.0218349,
2003-03-08, 02:36:00,VALID,916.824,VALID,0,VALID,91.9256,VALID,-0.0339617,VALID,17.3322,VALID,113,VALID,0.000919118,
2003-03-08, 02:37:01,VALID,916.801,VALID,0,VALID,92.4647,VALID,-0.0509425,VALID,17.2674,VALID,113,VALID,0.103795,
2003-03-08, 02:38:01,VALID,916.776,VALID,0,VALID,92.7547,VALID,-0.0509425,VALID,17.2258,VALID,113,VALID,0.263867,
2003-03-08, 02:39:00,VALID,916.748,VALID,0,VALID,93.1806,VALID,-0.0679233,VALID,17.1841,VALID,113,VALID,0.307813,
2003-03-08, 02:40:00,VALID,916.721,VALID,0,VALID,92.9479,VALID,-0.0509425,VALID,17.1029,VALID,113,VALID,0.341452,
2003-03-08, 02:41:00,VALID,916.697,VALID,0,VALID,93.3269,VALID,-0.101885,VALID,17.0422,VALID,113,VALID,0.403577,
2003-03-08, 02:42:01,VALID,916.689,VALID,0,VALID,93.9728,VALID,-0.0849042,VALID,17.0035,VALID,113,VALID,0.40558,
2003-03-08, 02:43:01,VALID,916.676,VALID,0,VALID,94.5641,VALID,-0.0849042,VALID,17.0422,VALID,113,VALID,0.436607,
2003-03-08, 02:44:01,VALID,916.673,VALID,0,VALID,94.5298,VALID,-0.101885,VALID,17.0708,VALID,113,VALID,0.407853,
2003-03-08, 02:45:00,VALID,916.692,VALID,0,VALID,93.8699,VALID,-0.0339617,VALID,17.0771,VALID,113,VALID,0.381664,
2003-03-08, 02:46:01,VALID,916.695,VALID,0,VALID,93.4693,VALID,-0.0679233,VALID,17.0644,VALID,113,VALID,0.26942,
2003-03-08, 02:47:01,VALID,916.712,VALID,0,VALID,93.6321,VALID,-0.0509425,VALID,17.0711,VALID,148,VALID,0.602344,
2003-03-08, 02:48:01,VALID,916.73,VALID,0,VALID,93.8775,VALID,-0.0169808,VALID,17.0353,VALID,155,VALID,0.725893,
2003-03-08, 02:49:01,VALID,916.728,VALID,0,VALID,94.0072,VALID,-0.0679233,VALID,16.997,VALID,153,VALID,0.642004,
2003-03-08, 02:50:00,VALID,916.724,VALID,0,VALID,94.0135,VALID,-0.0509425,VALID,16.9286,VALID,153,VALID,0.667146,
2003-03-08, 02:51:01,VALID,916.71,VALID,0,VALID,94.1687,VALID,-0.101885,VALID,16.8773,VALID,153,VALID,0.540402,
2003-03-08, 02:52:01,VALID,916.704,VALID,0,VALID,94.6519,VALID,-0.0509425,VALID,16.8483,VALID,154,VALID,0.457366,
2003-03-08, 02:53:01,VALID,916.689,VALID,0,VALID,95.4886,VALID,-0.0679233,VALID,16.8674,VALID,154,VALID,0.174107,
2003-03-08, 02:54:01,VALID,916.669,VALID,0,VALID,95.2699,VALID,-0.0339617,VALID,16.9096,VALID,154,VALID,0.0613511,
2003-03-08, 02:55:01,VALID,916.654,VALID,0,VALID,95.0741,VALID,-0.101885,VALID,16.9359,VALID,160,VALID,0.240179,
2003-03-08, 02:56:01,VALID,916.649,VALID,0,VALID,94.8782,VALID,-0.101885,VALID,16.9518,VALID,181,VALID,0.43457,
2003-03-08, 02:57:00,VALID,916.645,VALID,0,VALID,94.5184,VALID,-0.101885,VALID,16.9324,VALID,181,VALID,0.525,
2003-03-08, 02:58:01,VALID,916.645,VALID,0,VALID,94.7206,VALID,-0.101885,VALID,16.9425,VALID,152,VALID,0.491728,
2003-03-08, 02:59:01,VALID,916.66,VALID,0,VALID,94.8795,VALID,-0.101885,VALID,16.9333,VALID,139,VALID,0.431332,
2003-03-08, 03:00:01,VALID,916.677,VALID,0,VALID,95.1313,VALID,-0.0849042,VALID,16.9516,VALID,139,VALID,0.179464,
2003-03-08, 03:01:01,VALID,916.687,VALID,0,VALID,95.3004,VALID,-0.101885,VALID,16.9813,VALID,139,VALID,0.414509,
2003-03-08, 03:02:01,VALID,916.689,VALID,0,VALID,95.2813,VALID,-0.0849042,VALID,17.0101,VALID,139,VALID,0.38121,
2003-03-08, 03:03:01,VALID,916.69,VALID,0,VALID,95.3182,VALID,-0.0849042,VALID,17.0196,VALID,139,VALID,0.41636,
2003-03-08, 03:04:01,VALID,916.693,VALID,0,VALID,94.9647,VALID,-0.0679233,VALID,17.0097,VALID,139,VALID,0.183929,
2003-03-08, 03:05:01,VALID,916.686,VALID,0,VALID,94.9978,VALID,-0.101885,VALID,16.9974,VALID,139,VALID,0.34375,
2003-03-08, 03:06:01,VALID,916.683,VALID,0,VALID,95.6336,VALID,-0.0679233,VALID,17.0254,VALID,139,VALID,0.420982,
2003-03-08, 03:07:01,VALID,916.674,VALID,0,VALID,95.7302,VALID,0.0169808,VALID,17.0831,VALID,139,VALID,0.352482,
2003-03-08, 03:08:01,VALID,916.675,VALID,0,VALID,95.172,VALID,0,VALID,17.1221,VALID,139,VALID,0.0326891,
2003-03-08, 03:09:01,VALID,916.672,VALID,0,VALID,94.7002,VALID,0,VALID,17.1255,VALID,139,VALID,0.0709821,
2003-03-08, 03:10:01,VALID,916.666,VALID,0,VALID,94.4866,VALID,0.0339617,VALID,17.1156,VALID,139,VALID,0.134821,
2003-03-08, 03:11:01,VALID,916.653,VALID,0,VALID,93.9957,VALID,0.0169808,VALID,17.0803,VALID,139,VALID,0.20012,
2003-03-08, 03:12:01,VALID,916.65,VALID,0,VALID,94.1331,VALID,0.0169808,VALID,17.0157,VALID,139,VALID,0.299862,
2003-03-08, 03:13:01,VALID,916.629,VALID,0,VALID,94.7104,VALID,0.0169808,VALID,16.9929,VALID,136,VALID,0.362277,
2003-03-08, 03:14:01,VALID,916.608,VALID,0,VALID,95.3398,VALID,0.0509425,VALID,17.0119,VALID,115,VALID,0.466211,
2003-03-08, 03:15:01,VALID,916.587,VALID,0,VALID,95.2775,VALID,0.0339617,VALID,17.0575,VALID,115,VALID,0.356027,
2003-03-08, 03:16:01,VALID,916.565,VALID,0,VALID,94.6977,VALID,0,VALID,17.0831,VALID,115,VALID,0.351792,
2003-03-08, 03:17:01,VALID,916.559,VALID,0,VALID,94.4611,VALID,0,VALID,17.1227,VALID,115,VALID,0.349301,
2003-03-08, 03:18:01,VALID,916.546,VALID,0,VALID,93.4693,VALID,0,VALID,17.1221,VALID,115,VALID,0.231696,
2003-03-08, 03:19:01,VALID,916.531,VALID,0,VALID,93.4973,VALID,0,VALID,17.0932,VALID,115,VALID,0.25692,
2003-03-08, 03:20:01,VALID,916.528,VALID,0,VALID,94.1585,VALID,0,VALID,17.0801,VALID,115,VALID,0.232171,
2003-03-08, 03:21:00,VALID,916.523,VALID,0,VALID,94.2679,VALID,0.0339617,VALID,17.113,VALID,115,VALID,0.193934,
2003-03-08, 03:22:00,VALID,916.534,VALID,0,VALID,94.072,VALID,-0.0169808,VALID,17.1031,VALID,115,VALID,0.230134,
2003-03-08, 03:23:00,VALID,916.548,VALID,0,VALID,94.2335,VALID,-0.0169808,VALID,17.0838,VALID,115,VALID,0.230859,
2003-03-08, 03:24:00,VALID,916.568,VALID,0,VALID,94.5413,VALID,0,VALID,17.1003,VALID,115,VALID,0.232143,
2003-03-08, 03:25:00,VALID,916.571,VALID,0,VALID,94.7053,VALID,0,VALID,17.1195,VALID,115,VALID,0.272978,
2003-03-08, 03:26:00,VALID,916.577,VALID,0,VALID,94.4192,VALID,0,VALID,17.1513,VALID,115,VALID,0.366365,
2003-03-08, 03:27:00,VALID,916.577,VALID,0,VALID,93.7567,VALID,0,VALID,17.1255,VALID,115,VALID,0.454911,
2003-03-08, 03:28:00,VALID,916.566,VALID,0,VALID,93.8584,VALID,0,VALID,17.0805,VALID,107,VALID,0.551786,
2003-03-08, 03:29:00,VALID,916.566,VALID,0,VALID,94.0606,VALID,0,VALID,17.0153,VALID,105,VALID,0.546875,
2003-03-08, 03:30:00,VALID,916.566,VALID,0,VALID,94.2234,VALID,0,VALID,16.977,VALID,105,VALID,0.528952,
2003-03-08, 03:31:00,VALID,916.572,VALID,0,VALID,93.9792,VALID,0,VALID,16.9184,VALID,105,VALID,0.464509,
2003-03-08, 03:32:00,VALID,916.579,VALID,0,VALID,93.8304,VALID,0.0169808,VALID,16.8315,VALID,105,VALID,0.520898,
2003-03-08, 03:33:00,VALID,916.591,VALID,0,VALID,93.1132,VALID,0,VALID,16.7122,VALID,91,VALID,0.667634,
2003-03-08, 03:34:00,VALID,916.586,VALID,0,VALID,94.025,VALID,0,VALID,16.6126,VALID,83,VALID,0.71852,
2003-03-08, 03:35:00,VALID,916.58,VALID,0,VALID,95.0054,VALID,0,VALID,16.59,VALID,81,VALID,0.778577,
2003-03-08, 03:36:00,VALID,916.575,VALID,0,VALID,95.3678,VALID,-0.0169808,VALID,16.5448,VALID,80,VALID,0.826339,